owner,sensor,date,latitude,longitude,sea_surface_height_above_sea_level,qcFlag 
COMPS,ioos:station:USF.COMPS:ARP:1,2019-03-01T00:00:00Z,28.4330,-82.6670,-9.792,1111122 
COMPS,ioos:station:USF.COMPS:ARP:1,2019-03-01T00:06:00Z,28.4330,-82.6670,-9.778,1111122 
COMPS,ioos:station:USF.COMPS:ARP:1,2019-03-01T00:12:00Z,28.4330,-82.6670,-9.771,1111122 
COMPS,ioos:station:USF.COMPS:ARP:1,2019-03-01T00:18:00Z,28.4330,-82.6670,-9.764,1111122 
COMPS,ioos:station:USF.COMPS:ARP:1,2019-03-01T00:24:00Z,28.4330,-82.6670,-9.756,1111122 
COMPS,ioos:station:USF.COMPS:ARP:1,2019-03-01T00:30:00Z,28.4330,-82.6670,-9.753,1111122 
COMPS,ioos:station:USF.COMPS:ARP:1,2019-03-01T00:36:00Z,28.4330,-82.6670,-9.747,1111122 
COMPS,ioos:station:USF.COMPS:ARP:1,2019-03-01T00:42:00Z,28.4330,-82.6670,-9.743,1111122 
COMPS,ioos:station:USF.COMPS:ARP:1,2019-03-01T00:48:00Z,28.4330,-82.6670,-9.735,1111122 
COMPS,ioos:station:USF.COMPS:ARP:1,2019-03-01T00:54:00Z,28.4330,-82.6670,-9.725,1111122 
COMPS,ioos:station:USF.COMPS:ARP:1,2019-03-01T01:00:00Z,28.4330,-82.6670,-9.72,1111122 
COMPS,ioos:station:USF.COMPS:ARP:1,2019-03-01T01:06:00Z,28.4330,-82.6670,-9.71,1111122 
COMPS,ioos:station:USF.COMPS:ARP:1,2019-03-01T01:12:00Z,28.4330,-82.6670,-9.689,1111122 
COMPS,ioos:station:USF.COMPS:ARP:1,2019-03-01T01:18:00Z,28.4330,-82.6670,-9.68,1111122 
COMPS,ioos:station:USF.COMPS:ARP:1,2019-03-01T01:24:00Z,28.4330,-82.6670,-9.67,1111122 
COMPS,ioos:station:USF.COMPS:ARP:1,2019-03-01T01:30:00Z,28.4330,-82.6670,-9.658,1111122 
COMPS,ioos:station:USF.COMPS:ARP:1,2019-03-01T01:36:00Z,28.4330,-82.6670,-9.656,1111122 
COMPS,ioos:station:USF.COMPS:ARP:1,2019-03-01T01:42:00Z,28.4330,-82.6670,-9.65,1111122 
COMPS,ioos:station:USF.COMPS:ARP:1,2019-03-01T01:48:00Z,28.4330,-82.6670,-9.646,1111122 
COMPS,ioos:station:USF.COMPS:ARP:1,2019-03-01T01:54:00Z,28.4330,-82.6670,-9.643,1111122 
COMPS,ioos:station:USF.COMPS:ARP:1,2019-03-01T02:00:00Z,28.4330,-82.6670,-9.642,1111122 
COMPS,ioos:station:USF.COMPS:ARP:1,2019-03-01T02:06:00Z,28.4330,-82.6670,-9.637,1111122 
COMPS,ioos:station:USF.COMPS:ARP:1,2019-03-01T02:12:00Z,28.4330,-82.6670,-9.633,1111122 
COMPS,ioos:station:USF.COMPS:ARP:1,2019-03-01T02:18:00Z,28.4330,-82.6670,-9.628,1111122 
COMPS,ioos:station:USF.COMPS:ARP:1,2019-03-01T02:24:00Z,28.4330,-82.6670,-9.632,1111122 
COMPS,ioos:station:USF.COMPS:ARP:1,2019-03-01T02:30:00Z,28.4330,-82.6670,-9.628,1111122 
COMPS,ioos:station:USF.COMPS:ARP:1,2019-03-01T02:36:00Z,28.4330,-82.6670,-9.636,1111122 
COMPS,ioos:station:USF.COMPS:ARP:1,2019-03-01T02:42:00Z,28.4330,-82.6670,-9.645,1111122 
COMPS,ioos:station:USF.COMPS:ARP:1,2019-03-01T02:48:00Z,28.4330,-82.6670,-9.644,1111122 
COMPS,ioos:station:USF.COMPS:ARP:1,2019-03-01T02:54:00Z,28.4330,-82.6670,-9.647,1111122 
COMPS,ioos:station:USF.COMPS:ARP:1,2019-03-01T03:00:00Z,28.4330,-82.6670,-9.648,1111122 
COMPS,ioos:station:USF.COMPS:ARP:1,2019-03-01T03:12:00Z,28.4330,-82.6670,-9.658,1111122 
COMPS,ioos:station:USF.COMPS:ARP:1,2019-03-01T03:18:00Z,28.4330,-82.6670,-9.681,1111122 
COMPS,ioos:station:USF.COMPS:ARP:1,2019-03-01T03:24:00Z,28.4330,-82.6670,-9.695,1111122 
COMPS,ioos:station:USF.COMPS:ARP:1,2019-03-01T03:30:00Z,28.4330,-82.6670,-9.711,1111122 
COMPS,ioos:station:USF.COMPS:ARP:1,2019-03-01T03:36:00Z,28.4330,-82.6670,-9.718,1111122 
COMPS,ioos:station:USF.COMPS:ARP:1,2019-03-01T03:42:00Z,28.4330,-82.6670,-9.732,1111122 
COMPS,ioos:station:USF.COMPS:ARP:1,2019-03-01T03:48:00Z,28.4330,-82.6670,-9.737,1111122 
COMPS,ioos:station:USF.COMPS:ARP:1,2019-03-01T03:54:00Z,28.4330,-82.6670,-9.747,1111122 
COMPS,ioos:station:USF.COMPS:ARP:1,2019-03-01T04:00:00Z,28.4330,-82.6670,-9.76,1111122 
COMPS,ioos:station:USF.COMPS:ARP:1,2019-03-01T04:06:00Z,28.4330,-82.6670,-9.774,1111122 
COMPS,ioos:station:USF.COMPS:ARP:1,2019-03-01T04:12:00Z,28.4330,-82.6670,-9.79,1111122 
COMPS,ioos:station:USF.COMPS:ARP:1,2019-03-01T04:18:00Z,28.4330,-82.6670,-9.807,1111122 
COMPS,ioos:station:USF.COMPS:ARP:1,2019-03-01T04:24:00Z,28.4330,-82.6670,-9.822,1111122 
COMPS,ioos:station:USF.COMPS:ARP:1,2019-03-01T04:30:00Z,28.4330,-82.6670,-9.837,1111122 
COMPS,ioos:station:USF.COMPS:ARP:1,2019-03-01T04:36:00Z,28.4330,-82.6670,-9.857,1111122 
COMPS,ioos:station:USF.COMPS:ARP:1,2019-03-01T04:42:00Z,28.4330,-82.6670,-9.874,1111122 
COMPS,ioos:station:USF.COMPS:ARP:1,2019-03-01T04:48:00Z,28.4330,-82.6670,-9.875,1111122 
COMPS,ioos:station:USF.COMPS:ARP:1,2019-03-01T04:54:00Z,28.4330,-82.6670,-9.905,1111122 
COMPS,ioos:station:USF.COMPS:ARP:1,2019-03-01T05:00:00Z,28.4330,-82.6670,-9.92,1111122 
COMPS,ioos:station:USF.COMPS:ARP:1,2019-03-01T05:06:00Z,28.4330,-82.6670,-9.932,1111122 
COMPS,ioos:station:USF.COMPS:ARP:1,2019-03-01T05:12:00Z,28.4330,-82.6670,-9.951,1111122 
COMPS,ioos:station:USF.COMPS:ARP:1,2019-03-01T05:18:00Z,28.4330,-82.6670,-9.966,1111122 
COMPS,ioos:station:USF.COMPS:ARP:1,2019-03-01T05:24:00Z,28.4330,-82.6670,-9.983,1111122 
COMPS,ioos:station:USF.COMPS:ARP:1,2019-03-01T05:30:00Z,28.4330,-82.6670,-9.997,1111122 
COMPS,ioos:station:USF.COMPS:ARP:1,2019-03-01T14:24:00Z,28.4330,-82.6670,-9.987,1111122 
COMPS,ioos:station:USF.COMPS:ARP:1,2019-03-01T14:30:00Z,28.4330,-82.6670,-9.969,1111122 
COMPS,ioos:station:USF.COMPS:ARP:1,2019-03-01T14:36:00Z,28.4330,-82.6670,-9.956,1111122 
COMPS,ioos:station:USF.COMPS:ARP:1,2019-03-01T14:42:00Z,28.4330,-82.6670,-9.944,1111122 
COMPS,ioos:station:USF.COMPS:ARP:1,2019-03-01T14:48:00Z,28.4330,-82.6670,-9.939,1111122 
COMPS,ioos:station:USF.COMPS:ARP:1,2019-03-01T14:54:00Z,28.4330,-82.6670,-9.927,1111122 
COMPS,ioos:station:USF.COMPS:ARP:1,2019-03-01T15:00:00Z,28.4330,-82.6670,-9.921,1111122 
COMPS,ioos:station:USF.COMPS:ARP:1,2019-03-01T15:06:00Z,28.4330,-82.6670,-9.907,1111122 
COMPS,ioos:station:USF.COMPS:ARP:1,2019-03-01T15:12:00Z,28.4330,-82.6670,-9.892,1111122 
COMPS,ioos:station:USF.COMPS:ARP:1,2019-03-01T15:18:00Z,28.4330,-82.6670,-9.876,1111122 
COMPS,ioos:station:USF.COMPS:ARP:1,2019-03-01T15:24:00Z,28.4330,-82.6670,-9.862,1111122 
COMPS,ioos:station:USF.COMPS:ARP:1,2019-03-01T15:30:00Z,28.4330,-82.6670,-9.847,1111122 
COMPS,ioos:station:USF.COMPS:ARP:1,2019-03-01T15:36:00Z,28.4330,-82.6670,-9.838,1111122 
COMPS,ioos:station:USF.COMPS:ARP:1,2019-03-01T15:42:00Z,28.4330,-82.6670,-9.827,1111122 
COMPS,ioos:station:USF.COMPS:ARP:1,2019-03-01T15:48:00Z,28.4330,-82.6670,-9.816,1111122 
COMPS,ioos:station:USF.COMPS:ARP:1,2019-03-01T15:54:00Z,28.4330,-82.6670,-9.81,1111122 
COMPS,ioos:station:USF.COMPS:ARP:1,2019-03-01T16:00:00Z,28.4330,-82.6670,-9.806,1111122 
COMPS,ioos:station:USF.COMPS:ARP:1,2019-03-01T16:06:00Z,28.4330,-82.6670,-9.803,1111122 
COMPS,ioos:station:USF.COMPS:ARP:1,2019-03-01T16:12:00Z,28.4330,-82.6670,-9.805,1111122 
COMPS,ioos:station:USF.COMPS:ARP:1,2019-03-01T16:18:00Z,28.4330,-82.6670,-9.797,1111122 
COMPS,ioos:station:USF.COMPS:ARP:1,2019-03-01T16:24:00Z,28.4330,-82.6670,-9.793,1111122 
COMPS,ioos:station:USF.COMPS:ARP:1,2019-03-01T16:30:00Z,28.4330,-82.6670,-9.78,1111122 
COMPS,ioos:station:USF.COMPS:ARP:1,2019-03-01T16:36:00Z,28.4330,-82.6670,-9.772,1111122 
COMPS,ioos:station:USF.COMPS:ARP:1,2019-03-01T16:42:00Z,28.4330,-82.6670,-9.766,1111122 
COMPS,ioos:station:USF.COMPS:ARP:1,2019-03-01T16:48:00Z,28.4330,-82.6670,-9.758,1111122 
COMPS,ioos:station:USF.COMPS:ARP:1,2019-03-01T16:54:00Z,28.4330,-82.6670,-9.743,1111122 
COMPS,ioos:station:USF.COMPS:ARP:1,2019-03-01T17:00:00Z,28.4330,-82.6670,-9.736,1111122 
COMPS,ioos:station:USF.COMPS:ARP:1,2019-03-01T17:06:00Z,28.4330,-82.6670,-9.748,1111122 
COMPS,ioos:station:USF.COMPS:ARP:1,2019-03-01T17:12:00Z,28.4330,-82.6670,-9.761,1111122 
COMPS,ioos:station:USF.COMPS:ARP:1,2019-03-01T17:18:00Z,28.4330,-82.6670,-9.756,1111122 
COMPS,ioos:station:USF.COMPS:ARP:1,2019-03-01T17:24:00Z,28.4330,-82.6670,-9.763,1111122 
COMPS,ioos:station:USF.COMPS:ARP:1,2019-03-01T17:30:00Z,28.4330,-82.6670,-9.765,1111122 
COMPS,ioos:station:USF.COMPS:ARP:1,2019-03-01T17:36:00Z,28.4330,-82.6670,-9.775,1111122 
COMPS,ioos:station:USF.COMPS:ARP:1,2019-03-01T17:42:00Z,28.4330,-82.6670,-9.764,1111122 
COMPS,ioos:station:USF.COMPS:ARP:1,2019-03-01T17:48:00Z,28.4330,-82.6670,-9.781,1111122 
COMPS,ioos:station:USF.COMPS:ARP:1,2019-03-01T17:54:00Z,28.4330,-82.6670,-9.776,1111122 
COMPS,ioos:station:USF.COMPS:ARP:1,2019-03-01T18:00:00Z,28.4330,-82.6670,-9.781,1111122 
COMPS,ioos:station:USF.COMPS:ARP:1,2019-03-01T18:06:00Z,28.4330,-82.6670,-9.789,1111122 
COMPS,ioos:station:USF.COMPS:ARP:1,2019-03-01T18:12:00Z,28.4330,-82.6670,-9.798,1111122 
COMPS,ioos:station:USF.COMPS:ARP:1,2019-03-01T18:24:00Z,28.4330,-82.6670,-9.827,1111122 
COMPS,ioos:station:USF.COMPS:ARP:1,2019-03-01T18:30:00Z,28.4330,-82.6670,-9.802,1111122 
COMPS,ioos:station:USF.COMPS:ARP:1,2019-03-01T18:36:00Z,28.4330,-82.6670,-9.818,1111122 
COMPS,ioos:station:USF.COMPS:ARP:1,2019-03-01T18:42:00Z,28.4330,-82.6670,-9.825,1111122 
COMPS,ioos:station:USF.COMPS:ARP:1,2019-03-01T18:48:00Z,28.4330,-82.6670,-9.84,1111122 
COMPS,ioos:station:USF.COMPS:ARP:1,2019-03-01T18:54:00Z,28.4330,-82.6670,-9.854,1111122 
COMPS,ioos:station:USF.COMPS:ARP:1,2019-03-01T19:06:00Z,28.4330,-82.6670,-9.865,1111122 
COMPS,ioos:station:USF.COMPS:ARP:1,2019-03-01T19:12:00Z,28.4330,-82.6670,-9.865,1111122 
COMPS,ioos:station:USF.COMPS:ARP:1,2019-03-01T19:18:00Z,28.4330,-82.6670,-9.87,1111122 
COMPS,ioos:station:USF.COMPS:ARP:1,2019-03-01T19:24:00Z,28.4330,-82.6670,-9.866,1111122 
COMPS,ioos:station:USF.COMPS:ARP:1,2019-03-01T19:30:00Z,28.4330,-82.6670,-9.863,1111122 
COMPS,ioos:station:USF.COMPS:ARP:1,2019-03-01T19:36:00Z,28.4330,-82.6670,-9.882,1111122 
COMPS,ioos:station:USF.COMPS:ARP:1,2019-03-01T19:42:00Z,28.4330,-82.6670,-9.878,1111122 
COMPS,ioos:station:USF.COMPS:ARP:1,2019-03-01T19:48:00Z,28.4330,-82.6670,-9.873,1111122 
COMPS,ioos:station:USF.COMPS:ARP:1,2019-03-01T19:54:00Z,28.4330,-82.6670,-9.859,1111122 
COMPS,ioos:station:USF.COMPS:ARP:1,2019-03-01T20:06:00Z,28.4330,-82.6670,-9.847,1111122 
COMPS,ioos:station:USF.COMPS:ARP:1,2019-03-01T20:12:00Z,28.4330,-82.6670,-9.846,1111122 
COMPS,ioos:station:USF.COMPS:ARP:1,2019-03-01T20:18:00Z,28.4330,-82.6670,-9.866,1111122 
COMPS,ioos:station:USF.COMPS:ARP:1,2019-03-01T20:24:00Z,28.4330,-82.6670,-9.878,1111122 
COMPS,ioos:station:USF.COMPS:ARP:1,2019-03-01T20:30:00Z,28.4330,-82.6670,-9.865,1111122 
COMPS,ioos:station:USF.COMPS:ARP:1,2019-03-01T20:36:00Z,28.4330,-82.6670,-9.878,1111122 
COMPS,ioos:station:USF.COMPS:ARP:1,2019-03-01T20:42:00Z,28.4330,-82.6670,-9.878,1111122 
COMPS,ioos:station:USF.COMPS:ARP:1,2019-03-01T20:48:00Z,28.4330,-82.6670,-9.897,1111122 
COMPS,ioos:station:USF.COMPS:ARP:1,2019-03-01T20:54:00Z,28.4330,-82.6670,-9.884,1111122 
COMPS,ioos:station:USF.COMPS:ARP:1,2019-03-01T21:00:00Z,28.4330,-82.6670,-9.908,1111122 
COMPS,ioos:station:USF.COMPS:ARP:1,2019-03-01T21:06:00Z,28.4330,-82.6670,-9.927,1111122 
COMPS,ioos:station:USF.COMPS:ARP:1,2019-03-01T21:12:00Z,28.4330,-82.6670,-9.941,1111122 
COMPS,ioos:station:USF.COMPS:ARP:1,2019-03-01T21:18:00Z,28.4330,-82.6670,-9.951,1111122 
COMPS,ioos:station:USF.COMPS:ARP:1,2019-03-01T21:24:00Z,28.4330,-82.6670,-9.952,1111122 
COMPS,ioos:station:USF.COMPS:ARP:1,2019-03-01T21:30:00Z,28.4330,-82.6670,-9.953,1111122 
COMPS,ioos:station:USF.COMPS:ARP:1,2019-03-01T21:36:00Z,28.4330,-82.6670,-9.931,1111122 
COMPS,ioos:station:USF.COMPS:ARP:1,2019-03-01T21:42:00Z,28.4330,-82.6670,-9.948,1111122 
COMPS,ioos:station:USF.COMPS:ARP:1,2019-03-01T21:48:00Z,28.4330,-82.6670,-9.915,1111122 
COMPS,ioos:station:USF.COMPS:ARP:1,2019-03-01T21:54:00Z,28.4330,-82.6670,-9.917,1111122 
COMPS,ioos:station:USF.COMPS:ARP:1,2019-03-01T22:00:00Z,28.4330,-82.6670,-9.921,1111122 
COMPS,ioos:station:USF.COMPS:ARP:1,2019-03-01T22:06:00Z,28.4330,-82.6670,-9.932,1111122 
COMPS,ioos:station:USF.COMPS:ARP:1,2019-03-01T22:12:00Z,28.4330,-82.6670,-9.964,1111122 
COMPS,ioos:station:USF.COMPS:ARP:1,2019-03-01T22:18:00Z,28.4330,-82.6670,-9.977,1111122 
COMPS,ioos:station:USF.COMPS:ARP:1,2019-03-01T22:24:00Z,28.4330,-82.6670,-9.975,1111122 
COMPS,ioos:station:USF.COMPS:ARP:1,2019-03-01T22:30:00Z,28.4330,-82.6670,-9.984,1111122 
COMPS,ioos:station:USF.COMPS:ARP:1,2019-03-02T00:06:00Z,28.4330,-82.6670,-9.973,1111122 
COMPS,ioos:station:USF.COMPS:ARP:1,2019-03-02T00:12:00Z,28.4330,-82.6670,-9.945,1111122 
COMPS,ioos:station:USF.COMPS:ARP:1,2019-03-02T00:18:00Z,28.4330,-82.6670,-9.922,1111122 
COMPS,ioos:station:USF.COMPS:ARP:1,2019-03-02T00:24:00Z,28.4330,-82.6670,-9.897,1111122 
COMPS,ioos:station:USF.COMPS:ARP:1,2019-03-02T00:30:00Z,28.4330,-82.6670,-9.875,1111122 
COMPS,ioos:station:USF.COMPS:ARP:1,2019-03-02T00:36:00Z,28.4330,-82.6670,-9.852,1111122 
COMPS,ioos:station:USF.COMPS:ARP:1,2019-03-02T00:42:00Z,28.4330,-82.6670,-9.833,1111122 
COMPS,ioos:station:USF.COMPS:ARP:1,2019-03-02T00:48:00Z,28.4330,-82.6670,-9.823,1111122 
COMPS,ioos:station:USF.COMPS:ARP:1,2019-03-02T00:54:00Z,28.4330,-82.6670,-9.816,1111122 
COMPS,ioos:station:USF.COMPS:ARP:1,2019-03-02T01:00:00Z,28.4330,-82.6670,-9.803,1111122 
COMPS,ioos:station:USF.COMPS:ARP:1,2019-03-02T01:06:00Z,28.4330,-82.6670,-9.8,1111122 
COMPS,ioos:station:USF.COMPS:ARP:1,2019-03-02T01:12:00Z,28.4330,-82.6670,-9.788,1111122 
COMPS,ioos:station:USF.COMPS:ARP:1,2019-03-02T01:18:00Z,28.4330,-82.6670,-9.78,1111122 
COMPS,ioos:station:USF.COMPS:ARP:1,2019-03-02T01:24:00Z,28.4330,-82.6670,-9.771,1111122 
COMPS,ioos:station:USF.COMPS:ARP:1,2019-03-02T01:30:00Z,28.4330,-82.6670,-9.754,1111122 
COMPS,ioos:station:USF.COMPS:ARP:1,2019-03-02T01:36:00Z,28.4330,-82.6670,-9.742,1111122 
COMPS,ioos:station:USF.COMPS:ARP:1,2019-03-02T01:42:00Z,28.4330,-82.6670,-9.732,1111122 
COMPS,ioos:station:USF.COMPS:ARP:1,2019-03-02T01:48:00Z,28.4330,-82.6670,-9.716,1111122 
COMPS,ioos:station:USF.COMPS:ARP:1,2019-03-02T01:54:00Z,28.4330,-82.6670,-9.701,1111122 
COMPS,ioos:station:USF.COMPS:ARP:1,2019-03-02T02:00:00Z,28.4330,-82.6670,-9.684,1111122 
COMPS,ioos:station:USF.COMPS:ARP:1,2019-03-02T02:06:00Z,28.4330,-82.6670,-9.671,1111122 
COMPS,ioos:station:USF.COMPS:ARP:1,2019-03-02T02:12:00Z,28.4330,-82.6670,-9.66,1111122 
COMPS,ioos:station:USF.COMPS:ARP:1,2019-03-02T02:18:00Z,28.4330,-82.6670,-9.658,1111122 
COMPS,ioos:station:USF.COMPS:ARP:1,2019-03-02T02:24:00Z,28.4330,-82.6670,-9.639,1111122 
COMPS,ioos:station:USF.COMPS:ARP:1,2019-03-02T02:30:00Z,28.4330,-82.6670,-9.637,1111122 
COMPS,ioos:station:USF.COMPS:ARP:1,2019-03-02T02:36:00Z,28.4330,-82.6670,-9.637,1111122 
COMPS,ioos:station:USF.COMPS:ARP:1,2019-03-02T02:42:00Z,28.4330,-82.6670,-9.64,1111122 
COMPS,ioos:station:USF.COMPS:ARP:1,2019-03-02T02:48:00Z,28.4330,-82.6670,-9.634,1111122 
COMPS,ioos:station:USF.COMPS:ARP:1,2019-03-02T02:54:00Z,28.4330,-82.6670,-9.628,1111122 
COMPS,ioos:station:USF.COMPS:ARP:1,2019-03-02T03:00:00Z,28.4330,-82.6670,-9.619,1111122 
COMPS,ioos:station:USF.COMPS:ARP:1,2019-03-02T03:06:00Z,28.4330,-82.6670,-9.611,1111122 
COMPS,ioos:station:USF.COMPS:ARP:1,2019-03-02T03:12:00Z,28.4330,-82.6670,-9.599,1111122 
COMPS,ioos:station:USF.COMPS:ARP:1,2019-03-02T03:18:00Z,28.4330,-82.6670,-9.59,1111122 
COMPS,ioos:station:USF.COMPS:ARP:1,2019-03-02T03:24:00Z,28.4330,-82.6670,-9.588,1111122 
COMPS,ioos:station:USF.COMPS:ARP:1,2019-03-02T03:30:00Z,28.4330,-82.6670,-9.603,1111122 
COMPS,ioos:station:USF.COMPS:ARP:1,2019-03-02T03:36:00Z,28.4330,-82.6670,-9.617,1111122 
COMPS,ioos:station:USF.COMPS:ARP:1,2019-03-02T03:42:00Z,28.4330,-82.6670,-9.622,1111122 
COMPS,ioos:station:USF.COMPS:ARP:1,2019-03-02T03:48:00Z,28.4330,-82.6670,-9.638,1111122 
COMPS,ioos:station:USF.COMPS:ARP:1,2019-03-02T03:54:00Z,28.4330,-82.6670,-9.651,1111122 
COMPS,ioos:station:USF.COMPS:ARP:1,2019-03-02T04:00:00Z,28.4330,-82.6670,-9.656,1111122 
COMPS,ioos:station:USF.COMPS:ARP:1,2019-03-02T04:06:00Z,28.4330,-82.6670,-9.673,1111122 
COMPS,ioos:station:USF.COMPS:ARP:1,2019-03-02T04:12:00Z,28.4330,-82.6670,-9.689,1111122 
COMPS,ioos:station:USF.COMPS:ARP:1,2019-03-02T04:18:00Z,28.4330,-82.6670,-9.688,1111122 
COMPS,ioos:station:USF.COMPS:ARP:1,2019-03-02T04:24:00Z,28.4330,-82.6670,-9.706,1111122 
COMPS,ioos:station:USF.COMPS:ARP:1,2019-03-02T04:30:00Z,28.4330,-82.6670,-9.709,1111122 
COMPS,ioos:station:USF.COMPS:ARP:1,2019-03-02T04:36:00Z,28.4330,-82.6670,-9.717,1111122 
COMPS,ioos:station:USF.COMPS:ARP:1,2019-03-02T04:48:00Z,28.4330,-82.6670,-9.742,1111122 
COMPS,ioos:station:USF.COMPS:ARP:1,2019-03-02T04:54:00Z,28.4330,-82.6670,-9.756,1111122 
COMPS,ioos:station:USF.COMPS:ARP:1,2019-03-02T05:00:00Z,28.4330,-82.6670,-9.755,1111122 
COMPS,ioos:station:USF.COMPS:ARP:1,2019-03-02T05:06:00Z,28.4330,-82.6670,-9.78,1111122 
COMPS,ioos:station:USF.COMPS:ARP:1,2019-03-02T05:12:00Z,28.4330,-82.6670,-9.785,1111122 
COMPS,ioos:station:USF.COMPS:ARP:1,2019-03-02T05:18:00Z,28.4330,-82.6670,-9.795,1111122 
COMPS,ioos:station:USF.COMPS:ARP:1,2019-03-02T05:24:00Z,28.4330,-82.6670,-9.81,1111122 
COMPS,ioos:station:USF.COMPS:ARP:1,2019-03-02T05:30:00Z,28.4330,-82.6670,-9.821,1111122 
COMPS,ioos:station:USF.COMPS:ARP:1,2019-03-02T05:36:00Z,28.4330,-82.6670,-9.832,1111122 
COMPS,ioos:station:USF.COMPS:ARP:1,2019-03-02T05:42:00Z,28.4330,-82.6670,-9.843,1111122 
COMPS,ioos:station:USF.COMPS:ARP:1,2019-03-02T05:48:00Z,28.4330,-82.6670,-9.867,1111122 
COMPS,ioos:station:USF.COMPS:ARP:1,2019-03-02T05:54:00Z,28.4330,-82.6670,-9.884,1111122 
COMPS,ioos:station:USF.COMPS:ARP:1,2019-03-02T06:00:00Z,28.4330,-82.6670,-9.895,1111122 
COMPS,ioos:station:USF.COMPS:ARP:1,2019-03-02T06:06:00Z,28.4330,-82.6670,-9.907,1111122 
COMPS,ioos:station:USF.COMPS:ARP:1,2019-03-02T06:12:00Z,28.4330,-82.6670,-9.917,1111122 
COMPS,ioos:station:USF.COMPS:ARP:1,2019-03-02T06:18:00Z,28.4330,-82.6670,-9.937,1111122 
COMPS,ioos:station:USF.COMPS:ARP:1,2019-03-02T06:24:00Z,28.4330,-82.6670,-9.956,1111122 
COMPS,ioos:station:USF.COMPS:ARP:1,2019-03-02T06:30:00Z,28.4330,-82.6670,-9.975,1111122 
COMPS,ioos:station:USF.COMPS:ARP:1,2019-03-02T06:36:00Z,28.4330,-82.6670,-9.991,1111122 
COMPS,ioos:station:USF.COMPS:ARP:1,2019-03-02T15:06:00Z,28.4330,-82.6670,-9.979,1111122 
COMPS,ioos:station:USF.COMPS:ARP:1,2019-03-02T15:12:00Z,28.4330,-82.6670,-9.953,1111122 
COMPS,ioos:station:USF.COMPS:ARP:1,2019-03-02T15:18:00Z,28.4330,-82.6670,-9.928,1111122 
COMPS,ioos:station:USF.COMPS:ARP:1,2019-03-02T15:24:00Z,28.4330,-82.6670,-9.904,1111122 
COMPS,ioos:station:USF.COMPS:ARP:1,2019-03-02T15:30:00Z,28.4330,-82.6670,-9.88,1111122 
COMPS,ioos:station:USF.COMPS:ARP:1,2019-03-02T15:36:00Z,28.4330,-82.6670,-9.857,1111122 
COMPS,ioos:station:USF.COMPS:ARP:1,2019-03-02T15:42:00Z,28.4330,-82.6670,-9.831,1111122 
COMPS,ioos:station:USF.COMPS:ARP:1,2019-03-02T15:48:00Z,28.4330,-82.6670,-9.809,1111122 
COMPS,ioos:station:USF.COMPS:ARP:1,2019-03-02T15:54:00Z,28.4330,-82.6670,-9.79,1111122 
COMPS,ioos:station:USF.COMPS:ARP:1,2019-03-02T16:00:00Z,28.4330,-82.6670,-9.769,1111122 
COMPS,ioos:station:USF.COMPS:ARP:1,2019-03-02T16:06:00Z,28.4330,-82.6670,-9.749,1111122 
COMPS,ioos:station:USF.COMPS:ARP:1,2019-03-02T16:12:00Z,28.4330,-82.6670,-9.731,1111122 
COMPS,ioos:station:USF.COMPS:ARP:1,2019-03-02T16:18:00Z,28.4330,-82.6670,-9.718,1111122 
COMPS,ioos:station:USF.COMPS:ARP:1,2019-03-02T16:24:00Z,28.4330,-82.6670,-9.706,1111122 
COMPS,ioos:station:USF.COMPS:ARP:1,2019-03-02T16:30:00Z,28.4330,-82.6670,-9.692,1111122 
COMPS,ioos:station:USF.COMPS:ARP:1,2019-03-02T16:36:00Z,28.4330,-82.6670,-9.685,1111122 
COMPS,ioos:station:USF.COMPS:ARP:1,2019-03-02T16:42:00Z,28.4330,-82.6670,-9.679,1111122 
COMPS,ioos:station:USF.COMPS:ARP:1,2019-03-02T16:48:00Z,28.4330,-82.6670,-9.675,1111122 
COMPS,ioos:station:USF.COMPS:ARP:1,2019-03-02T16:54:00Z,28.4330,-82.6670,-9.665,1111122 
COMPS,ioos:station:USF.COMPS:ARP:1,2019-03-02T17:00:00Z,28.4330,-82.6670,-9.655,1111122 
COMPS,ioos:station:USF.COMPS:ARP:1,2019-03-02T17:06:00Z,28.4330,-82.6670,-9.654,1111122 
COMPS,ioos:station:USF.COMPS:ARP:1,2019-03-02T17:12:00Z,28.4330,-82.6670,-9.649,1111122 
COMPS,ioos:station:USF.COMPS:ARP:1,2019-03-02T17:18:00Z,28.4330,-82.6670,-9.641,1111122 
COMPS,ioos:station:USF.COMPS:ARP:1,2019-03-02T17:24:00Z,28.4330,-82.6670,-9.632,1111122 
COMPS,ioos:station:USF.COMPS:ARP:1,2019-03-02T17:30:00Z,28.4330,-82.6670,-9.636,1111122 
COMPS,ioos:station:USF.COMPS:ARP:1,2019-03-02T17:36:00Z,28.4330,-82.6670,-9.635,1111122 
COMPS,ioos:station:USF.COMPS:ARP:1,2019-03-02T17:42:00Z,28.4330,-82.6670,-9.646,1111122 
COMPS,ioos:station:USF.COMPS:ARP:1,2019-03-02T17:48:00Z,28.4330,-82.6670,-9.644,1111122 
COMPS,ioos:station:USF.COMPS:ARP:1,2019-03-02T17:54:00Z,28.4330,-82.6670,-9.646,1111122 
COMPS,ioos:station:USF.COMPS:ARP:1,2019-03-02T18:00:00Z,28.4330,-82.6670,-9.661,1111122 
COMPS,ioos:station:USF.COMPS:ARP:1,2019-03-02T18:06:00Z,28.4330,-82.6670,-9.666,1111122 
COMPS,ioos:station:USF.COMPS:ARP:1,2019-03-02T18:12:00Z,28.4330,-82.6670,-9.68,1111122 
COMPS,ioos:station:USF.COMPS:ARP:1,2019-03-02T18:18:00Z,28.4330,-82.6670,-9.689,1111122 
COMPS,ioos:station:USF.COMPS:ARP:1,2019-03-02T18:24:00Z,28.4330,-82.6670,-9.697,1111122 
COMPS,ioos:station:USF.COMPS:ARP:1,2019-03-02T18:30:00Z,28.4330,-82.6670,-9.707,1111122 
COMPS,ioos:station:USF.COMPS:ARP:1,2019-03-02T18:36:00Z,28.4330,-82.6670,-9.71,1111122 
COMPS,ioos:station:USF.COMPS:ARP:1,2019-03-02T18:42:00Z,28.4330,-82.6670,-9.706,1111122 
COMPS,ioos:station:USF.COMPS:ARP:1,2019-03-02T18:48:00Z,28.4330,-82.6670,-9.703,1111122 
COMPS,ioos:station:USF.COMPS:ARP:1,2019-03-02T18:54:00Z,28.4330,-82.6670,-9.709,1111122 
COMPS,ioos:station:USF.COMPS:ARP:1,2019-03-02T19:00:00Z,28.4330,-82.6670,-9.707,1111122 
COMPS,ioos:station:USF.COMPS:ARP:1,2019-03-02T19:06:00Z,28.4330,-82.6670,-9.716,1111122 
COMPS,ioos:station:USF.COMPS:ARP:1,2019-03-02T19:12:00Z,28.4330,-82.6670,-9.722,1111122 
COMPS,ioos:station:USF.COMPS:ARP:1,2019-03-02T19:18:00Z,28.4330,-82.6670,-9.74,1111122 
COMPS,ioos:station:USF.COMPS:ARP:1,2019-03-02T19:24:00Z,28.4330,-82.6670,-9.753,1111122 
COMPS,ioos:station:USF.COMPS:ARP:1,2019-03-02T19:30:00Z,28.4330,-82.6670,-9.765,1111122 
COMPS,ioos:station:USF.COMPS:ARP:1,2019-03-02T19:36:00Z,28.4330,-82.6670,-9.777,1111122 
COMPS,ioos:station:USF.COMPS:ARP:1,2019-03-02T19:42:00Z,28.4330,-82.6670,-9.795,1111122 
COMPS,ioos:station:USF.COMPS:ARP:1,2019-03-02T19:48:00Z,28.4330,-82.6670,-9.811,1111122 
COMPS,ioos:station:USF.COMPS:ARP:1,2019-03-02T19:54:00Z,28.4330,-82.6670,-9.82,1111122 
COMPS,ioos:station:USF.COMPS:ARP:1,2019-03-02T20:00:00Z,28.4330,-82.6670,-9.843,1111122 
COMPS,ioos:station:USF.COMPS:ARP:1,2019-03-02T20:06:00Z,28.4330,-82.6670,-9.862,1111122 
COMPS,ioos:station:USF.COMPS:ARP:1,2019-03-02T20:12:00Z,28.4330,-82.6670,-9.877,1111122 
COMPS,ioos:station:USF.COMPS:ARP:1,2019-03-02T20:18:00Z,28.4330,-82.6670,-9.889,1111122 
COMPS,ioos:station:USF.COMPS:ARP:1,2019-03-02T20:24:00Z,28.4330,-82.6670,-9.904,1111122 
COMPS,ioos:station:USF.COMPS:ARP:1,2019-03-02T20:30:00Z,28.4330,-82.6670,-9.918,1111122 
COMPS,ioos:station:USF.COMPS:ARP:1,2019-03-02T20:36:00Z,28.4330,-82.6670,-9.932,1111122 
COMPS,ioos:station:USF.COMPS:ARP:1,2019-03-02T20:42:00Z,28.4330,-82.6670,-9.946,1111122 
COMPS,ioos:station:USF.COMPS:ARP:1,2019-03-02T20:48:00Z,28.4330,-82.6670,-9.963,1111122 
COMPS,ioos:station:USF.COMPS:ARP:1,2019-03-02T20:54:00Z,28.4330,-82.6670,-9.977,1111122 
COMPS,ioos:station:USF.COMPS:ARP:1,2019-03-02T21:00:00Z,28.4330,-82.6670,-9.987,1111122 
COMPS,ioos:station:USF.COMPS:ARP:1,2019-03-03T00:42:00Z,28.4330,-82.6670,-9.993,1111122 
COMPS,ioos:station:USF.COMPS:ARP:1,2019-03-03T00:48:00Z,28.4330,-82.6670,-9.979,1111122 
COMPS,ioos:station:USF.COMPS:ARP:1,2019-03-03T00:54:00Z,28.4330,-82.6670,-9.966,1111122 
COMPS,ioos:station:USF.COMPS:ARP:1,2019-03-03T01:00:00Z,28.4330,-82.6670,-9.951,1111122 
COMPS,ioos:station:USF.COMPS:ARP:1,2019-03-03T01:06:00Z,28.4330,-82.6670,-9.934,1111122 
COMPS,ioos:station:USF.COMPS:ARP:1,2019-03-03T01:12:00Z,28.4330,-82.6670,-9.923,1111122 
COMPS,ioos:station:USF.COMPS:ARP:1,2019-03-03T01:18:00Z,28.4330,-82.6670,-9.909,1111122 
COMPS,ioos:station:USF.COMPS:ARP:1,2019-03-03T01:24:00Z,28.4330,-82.6670,-9.894,1111122 
COMPS,ioos:station:USF.COMPS:ARP:1,2019-03-03T01:30:00Z,28.4330,-82.6670,-9.881,1111122 
COMPS,ioos:station:USF.COMPS:ARP:1,2019-03-03T01:36:00Z,28.4330,-82.6670,-9.868,1111122 